Miscellaneous Local Product
Issued by NWS Hastings, NE

Home | Current Version | Previous Version | Text Only | Print | Product List | Glossary Off
Versions: 1 2 3 4 5 6 7 8 9 10 11 12 13 14 15 16 17 18 19 20 21 22 23 24 25 26 27 28 29 30 31 32 33 34 35 36 37 38 39 40 41 42 43 44 45 46 47 48 49 50

822
AXUS43 KGID 071902
MISGRI

GID CWA HOURLY WEATHER ROUNDUP
NATIONAL WEATHER SERVICE HASTINGS NE
100 PM CST SUN FEB 07 2016

NOTE: "FAIR" INDICATES FEW OR NO CLOUDS BELOW 12,000 FEET WITH NO
SIGNIFICANT WEATHER AND/OR OBSTRUCTIONS TO VISIBILITY.

...SOUTH CENTRAL NEBRASKA...

CITY           SKY/WX    TMP DP  RH WIND       PRES   REMARKS
GRAND ISLAND   SUNNY     42  19  39 NW30G40   30.07F
HASTINGS       SUNNY     41  24  51 W20       30.09F
ORD            CLOUDY    40  16  37 NW37G49   30.04F WCI  27
YORK           SUNNY     39  27  60 W22       30.05F WCI  29
AURORA         SUNNY     40  24  52 W18G26    30.07F WCI  31
LEXINGTON      SUNNY     40  23  49 W23G35    30.16F WCI  30
HOLDREGE       SUNNY     40  26  56 W14       30.15F WCI  32
HEBRON         MOSUNNY   42  25  50 W16G23    30.11F

...NEBRASKA PANHANDLE...

CITY           SKY/WX    TMP DP  RH WIND       PRES   REMARKS
CHADRON        SUNNY     38  14  37 NW29G45   30.25S WCI  26
ALLIANCE       SUNNY     33  16  49 NW26G39   30.23F WCI  20
SCOTTSBLUFF    CLOUDY    34  15  46 NW30G40   30.31F WCI  20
SIDNEY         CLOUDY    34  20  56 NW29G36   30.28F WCI  20

...WESTERN AND NORTH CENTRAL NEBRASKA...

CITY           SKY/WX    TMP DP  RH WIND       PRES   REMARKS
VALENTINE      CLOUDY    37  17  44 NW35G52   30.05F WCI  24
AINSWORTH      CLOUDY    38  15  39 NW38G52   30.05F WCI  24
ONEILL         CLOUDY    37  25  63 NW36G51   30.01S WCI  23
BROKEN BOW     MOSUNNY   41  16  36 NW33G48   30.09F
IMPERIAL       MOSUNNY   37  24  59 NW20G28   30.26F WCI  27
NORTH PLATTE   SUNNY     39  18  42 NW29G40   30.17F WCI  27
MCCOOK         CLOUDY    39  25  57 W23G31    30.23F WCI  28

...EASTERN NEBRASKA...

CITY           SKY/WX    TMP DP  RH WIND       PRES   REMARKS
NORFOLK        CLOUDY    41  20  43 NW29G43   29.94F
SO SIOUX CITY  CLOUDY    41  23  48 NW23G32   29.89F
TEKAMAH        MOSUNNY   42  25  50 W22G32    29.94F
COLUMBUS       PTSUNNY   43  19  39 W22G29    30.00F
ALBION         CLOUDY    41  18  39 NW24G40   30.00F
OMAHA EPPLEY   MOSUNNY   44  25  47 W21G29    29.96F
OFFUTT AFB     SUNNY     44  26  49 W17G26    29.96F
MILLARD        SUNNY     44  27  51 W14G23    29.98F
LINCOLN        SUNNY     43  26  51 W16       30.03F
NEBRASKA CITY  SUNNY     43  28  56 NW20      30.02F
BEATRICE       SUNNY     44  30  57 W20G28    30.06F
FALLS CITY     MOSUNNY   48  27  44 NW28G33   30.03F

...NORTHERN KANSAS...

CITY           SKY/WX    TMP DP  RH WIND       PRES   REMARKS
GOODLAND       SUNNY     36  24  62 NW23      30.30F WCI  24
HILL CITY      MOSUNNY   42  26  53 NW17G26   30.25F
NORTON         CLOUDY    39  23  52 W20       30.21  WCI  30
PHILLIPSBURG   CLOUDY    43  27  52 W17G23    30.20F
BELOIT         MOSUNNY   43  27  52 W12G21    30.18S
HAYS           CLOUDY    45  25  45 NW20G25   30.24F
RUSSELL        CLOUDY    43  29  57 NW18      30.21F
CONCORDIA      MOSUNNY   47  24  40 NW17G31   30.13F
SALINA         CLOUDY    51  24  34 NW21G29   30.17F
TOPEKA         CLOUDY    51  24  34 W16       30.08F



USA.gov is the U.S. government's official web portal to all federal, state and local government web resources and services.